Location: Martz Observatory
(42.0083°N, 79.0667°W)
Time: 03:29:09
(UTC-05:00)

Meteor 1-23 Rocket - Visible Passes

Search period start: 05 December 2016 00:00
Search period end: 15 December 2016 00:00
Orbit: 836 x 889 km, 81.3° (Epoch: 04 December)

Date Brightness Start Highest point End Pass type
(mag) Time Alt. Az. Time Alt. Az. Time Alt. Az.
05 Dec 5.9 05:27:12 10° N 05:32:09 31° ENE 05:37:02 10° SE visible
05 Dec 4.7 18:38:34 10° SSE 18:43:21 39° ESE 18:43:21 39° ESE visible
05 Dec 6.2 20:22:18 10° SW 20:25:42 25° W 20:25:42 25° W visible
06 Dec 5.9 05:18:53 10° N 05:23:48 31° ENE 05:28:40 10° SE visible
06 Dec 4.6 18:30:15 10° SSE 18:35:31 40° E 18:36:18 38° ENE visible
06 Dec 6.0 20:13:56 10° SW 20:18:40 28° WNW 20:18:40 28° WNW visible
07 Dec 5.9 05:10:33 10° N 05:15:26 31° ENE 05:20:18 10° SE visible
07 Dec 4.8 06:53:39 10° NNW 06:58:36 34° W 07:03:32 10° SSW visible
07 Dec 4.6 18:21:55 10° SSE 18:27:11 39° E 18:29:14 29° NE visible
07 Dec 6.0 20:05:35 10° SW 20:10:26 28° WNW 20:11:35 26° NW visible
08 Dec 5.9 05:02:12 10° N 05:07:05 30° ENE 05:11:56 10° SE visible
08 Dec 4.8 06:45:17 10° NNW 06:50:15 34° W 06:55:13 10° SSW visible
08 Dec 4.7 18:13:37 10° SSE 18:18:50 39° E 18:22:05 21° NE visible
08 Dec 6.0 19:57:13 10° SW 20:02:05 28° WNW 20:04:26 21° NNW visible
09 Dec 5.9 04:53:53 10° N 04:58:44 30° ENE 05:03:34 10° SE visible
09 Dec 4.8 06:36:56 10° NNW 06:41:55 35° W 06:46:53 10° SSW visible
09 Dec 4.7 18:05:18 10° SSE 18:10:30 38° E 18:14:52 14° NNE visible
09 Dec 6.0 19:48:52 10° SW 19:53:44 29° WNW 19:57:12 16° NNW visible
10 Dec 5.9 04:45:33 10° N 04:50:23 30° ENE 04:55:13 10° SE visible
10 Dec 4.8 06:28:35 10° NNW 06:33:34 35° W 06:38:34 10° SSW visible
10 Dec 4.7 17:56:59 10° SSE 18:02:10 38° E 18:07:19 10° NNE visible
10 Dec 6.0 19:40:31 10° SW 19:45:24 29° WNW 19:49:53 12° NNW visible
11 Dec 5.9 04:37:12 10° N 04:42:02 29° ENE 04:46:51 10° SE visible
11 Dec 4.7 06:20:13 10° NNW 06:25:14 36° W 06:30:14 10° SSW visible
11 Dec 4.7 17:48:40 10° SSE 17:53:50 37° E 17:58:57 10° NNE visible
11 Dec 6.0 19:32:09 10° SW 19:37:02 29° WNW 19:41:55 10° N visible
12 Dec 5.9 04:29:45 14° NNE 04:33:41 29° ENE 04:38:29 10° SE visible
12 Dec 4.7 06:12:05 11° NNW 06:16:54 36° W 06:21:55 10° SSW visible
12 Dec 4.8 17:40:21 10° SSE 17:45:30 37° E 17:50:36 10° NNE visible
12 Dec 6.0 19:23:48 10° SW 19:28:42 30° WNW 19:33:35 10° N visible
13 Dec 5.9 04:22:35 19° NNE 04:25:20 29° ENE 04:30:07 10° SE visible
13 Dec 4.7 06:04:55 17° NW 06:08:33 37° W 06:13:36 10° SSW visible
13 Dec 4.8 17:32:02 10° SSE 17:37:09 36° E 17:42:15 10° NNE visible
13 Dec 6.0 19:15:27 10° SW 19:20:21 30° WNW 19:25:15 10° N visible
14 Dec 5.9 04:15:29 25° NE 04:16:59 29° ENE 04:21:46 10° SE visible
14 Dec 4.7 05:57:50 25° NW 06:00:13 37° W 06:05:16 10° SSW visible
14 Dec 4.8 17:23:43 10° SSE 17:28:49 36° E 17:33:53 10° NNE visible
14 Dec 6.0 19:07:05 10° SW 19:12:00 30° WNW 19:16:55 10° N visible
